Year,Month,Day,Hour,Minute,Value (Times are PST for temperature in C)
2015,07,21,00,00,16.70
2015,07,21,00,01,16.70
2015,07,21,00,02,16.70
2015,07,21,00,03,16.60
2015,07,21,00,04,16.50
2015,07,21,00,05,16.50
2015,07,21,00,06,16.50
2015,07,21,00,07,16.40
2015,07,21,00,08,16.40
2015,07,21,00,09,16.40
2015,07,21,00,10,16.40
2015,07,21,00,11,16.40
2015,07,21,00,12,16.40
2015,07,21,00,13,16.30
2015,07,21,00,14,16.30
2015,07,21,00,15,16.30
2015,07,21,00,16,16.30
2015,07,21,00,17,16.30
2015,07,21,00,18,16.30
2015,07,21,00,19,16.30
2015,07,21,00,20,16.20
2015,07,21,00,21,16.20
2015,07,21,00,22,16.20
2015,07,21,00,23,16.20
2015,07,21,00,24,16.20
2015,07,21,00,25,16.20
2015,07,21,00,26,16.10
2015,07,21,00,27,16.10
2015,07,21,00,28,16.10
2015,07,21,00,29,16.10
2015,07,21,00,30,16.10
2015,07,21,00,31,16.10
2015,07,21,00,32,16.10
2015,07,21,00,33,16.10
2015,07,21,00,34,16.00
2015,07,21,00,35,16.00
2015,07,21,00,36,16.00
2015,07,21,00,37,16.00
2015,07,21,00,38,16.10
2015,07,21,00,39,16.10
2015,07,21,00,40,16.10
2015,07,21,00,41,16.10
2015,07,21,00,42,16.00
2015,07,21,00,43,16.00
2015,07,21,00,44,16.00
2015,07,21,00,45,16.00
2015,07,21,00,46,15.90
2015,07,21,00,47,15.90
2015,07,21,00,48,15.90
2015,07,21,00,49,15.90
2015,07,21,00,50,15.90
2015,07,21,00,51,15.90
2015,07,21,00,52,15.80
2015,07,21,00,53,15.80
2015,07,21,00,54,15.80
2015,07,21,00,55,15.80
2015,07,21,00,56,15.80
2015,07,21,00,57,15.80
2015,07,21,00,58,15.90
2015,07,21,00,59,15.90
2015,07,21,01,00,15.90
2015,07,21,01,01,15.90
2015,07,21,01,02,15.90
2015,07,21,01,03,15.90
2015,07,21,01,04,15.90
2015,07,21,01,05,15.90
2015,07,21,01,06,15.90
2015,07,21,01,07,15.90
2015,07,21,01,08,15.90
2015,07,21,01,09,15.90
2015,07,21,01,10,15.90
2015,07,21,01,11,15.90
2015,07,21,01,12,15.90
2015,07,21,01,13,15.90
2015,07,21,01,14,15.90
2015,07,21,01,15,15.90
2015,07,21,01,16,15.90
2015,07,21,01,17,15.90
2015,07,21,01,18,15.90
2015,07,21,01,19,15.80
2015,07,21,01,20,15.80
2015,07,21,01,21,15.80
2015,07,21,01,22,15.80
2015,07,21,01,23,15.80
2015,07,21,01,24,15.80
2015,07,21,01,25,15.80
2015,07,21,01,26,15.80
2015,07,21,01,27,15.80
2015,07,21,01,28,15.70
2015,07,21,01,29,15.70
2015,07,21,01,30,15.70
2015,07,21,01,31,15.70
2015,07,21,01,32,15.70
2015,07,21,01,33,15.70
2015,07,21,01,34,15.70
2015,07,21,01,35,15.70
2015,07,21,01,36,15.70
2015,07,21,01,37,15.70
2015,07,21,01,38,15.70
2015,07,21,01,39,15.70
2015,07,21,01,40,15.70
2015,07,21,01,41,15.70
2015,07,21,01,42,15.70
2015,07,21,01,43,15.60
2015,07,21,01,44,15.60
2015,07,21,01,45,15.60
2015,07,21,01,46,15.60
2015,07,21,01,47,15.60
2015,07,21,01,48,15.60
2015,07,21,01,49,15.60
2015,07,21,01,50,15.50
2015,07,21,01,51,15.50
2015,07,21,01,52,15.50
2015,07,21,01,53,15.50
2015,07,21,01,54,15.50
2015,07,21,01,55,15.40
2015,07,21,01,56,15.40
2015,07,21,01,57,15.40
2015,07,21,01,58,15.40
2015,07,21,01,59,15.40
2015,07,21,02,00,15.40
2015,07,21,02,01,15.30
2015,07,21,02,02,15.30
2015,07,21,02,03,15.30
2015,07,21,02,04,15.30
2015,07,21,02,05,15.30
2015,07,21,02,06,15.30
2015,07,21,02,07,15.30
2015,07,21,02,08,15.30
2015,07,21,02,09,15.30
2015,07,21,02,10,15.30
2015,07,21,02,11,15.30
2015,07,21,02,12,15.30
2015,07,21,02,13,15.30
2015,07,21,02,14,15.30
2015,07,21,02,15,15.20
2015,07,21,02,16,15.20
2015,07,21,02,17,15.20
2015,07,21,02,18,15.20
2015,07,21,02,19,15.20
2015,07,21,02,20,15.20
2015,07,21,02,21,15.20
2015,07,21,02,22,15.10
2015,07,21,02,23,15.10
2015,07,21,02,24,15.10
2015,07,21,02,25,15.10
2015,07,21,02,26,15.00
2015,07,21,02,27,15.00
2015,07,21,02,28,15.00
2015,07,21,02,29,15.00
2015,07,21,02,30,15.00
2015,07,21,02,31,14.90
2015,07,21,02,32,14.90
2015,07,21,02,33,14.90
2015,07,21,02,34,14.90
2015,07,21,02,35,14.90
2015,07,21,02,36,14.90
2015,07,21,02,37,14.90
2015,07,21,02,38,14.90
2015,07,21,02,39,14.90
2015,07,21,02,40,14.90
2015,07,21,02,41,14.90
2015,07,21,02,42,14.90
2015,07,21,02,43,14.90
2015,07,21,02,44,14.90
2015,07,21,02,45,15.00
2015,07,21,02,46,15.00
2015,07,21,02,47,15.00
2015,07,21,02,48,15.00
2015,07,21,02,49,15.00
2015,07,21,02,50,15.00
2015,07,21,02,51,15.00
2015,07,21,02,52,15.00
2015,07,21,02,53,15.00
2015,07,21,02,54,15.10
2015,07,21,02,55,15.10
2015,07,21,02,56,15.10
2015,07,21,02,57,15.10
2015,07,21,02,58,15.10
2015,07,21,02,59,15.10
2015,07,21,03,00,15.10
2015,07,21,03,01,15.10
2015,07,21,03,02,15.00
2015,07,21,03,03,15.10
2015,07,21,03,04,15.10
2015,07,21,03,05,15.10
2015,07,21,03,06,15.00
2015,07,21,03,07,15.00
2015,07,21,03,08,15.00
2015,07,21,03,09,15.00
2015,07,21,03,10,15.00
2015,07,21,03,11,15.00
2015,07,21,03,12,14.90
2015,07,21,03,13,14.90
2015,07,21,03,14,14.90
2015,07,21,03,15,14.90
2015,07,21,03,16,14.90
2015,07,21,03,17,14.80
2015,07,21,03,18,14.80
2015,07,21,03,19,14.80
2015,07,21,03,20,14.80
2015,07,21,03,21,14.80
2015,07,21,03,22,14.80
2015,07,21,03,23,14.80
2015,07,21,03,24,14.80
2015,07,21,03,25,14.80
2015,07,21,03,26,14.80
2015,07,21,03,27,14.80
2015,07,21,03,28,14.80
2015,07,21,03,29,14.80
2015,07,21,03,30,14.80
2015,07,21,03,31,14.80
2015,07,21,03,32,14.80
2015,07,21,03,33,14.80
2015,07,21,03,34,14.80
2015,07,21,03,35,14.70
2015,07,21,03,36,14.70
2015,07,21,03,37,14.70
2015,07,21,03,38,14.70
2015,07,21,03,39,14.70
2015,07,21,03,40,14.70
2015,07,21,03,41,14.70
2015,07,21,03,42,14.70
2015,07,21,03,43,14.70
2015,07,21,03,44,14.70
2015,07,21,03,45,14.70
2015,07,21,03,46,14.70
2015,07,21,03,47,14.70
2015,07,21,03,48,14.70
2015,07,21,03,49,14.70
2015,07,21,03,50,14.70
2015,07,21,03,51,14.70
2015,07,21,03,52,14.70
2015,07,21,03,53,14.70
2015,07,21,03,54,14.70
2015,07,21,03,55,14.70
2015,07,21,03,56,14.70
2015,07,21,03,57,14.70
2015,07,21,03,58,14.70
2015,07,21,03,59,14.70
2015,07,21,04,00,14.70
2015,07,21,04,01,14.70
2015,07,21,04,02,14.70
2015,07,21,05,02,14.40
2015,07,21,05,03,14.40
2015,07,21,05,04,14.40
2015,07,21,05,05,14.40
2015,07,21,05,06,14.40
2015,07,21,05,07,14.40
2015,07,21,05,08,14.40
2015,07,21,05,09,14.40
2015,07,21,05,10,14.40
2015,07,21,05,11,14.40
2015,07,21,05,12,14.40
2015,07,21,05,13,14.40
2015,07,21,05,14,14.40
2015,07,21,05,15,14.40
2015,07,21,05,16,14.40
2015,07,21,05,17,14.40
2015,07,21,05,18,14.40
2015,07,21,05,19,14.40
2015,07,21,05,20,14.40
2015,07,21,05,21,14.40
2015,07,21,05,22,14.40
2015,07,21,05,23,14.40
2015,07,21,05,24,14.40
2015,07,21,05,25,14.40
2015,07,21,05,26,14.40
2015,07,21,05,27,14.40
2015,07,21,05,28,14.40
2015,07,21,05,29,14.30
2015,07,21,05,30,14.30
2015,07,21,05,31,14.30
2015,07,21,05,32,14.30
2015,07,21,05,33,14.30
2015,07,21,05,34,14.30
2015,07,21,05,35,14.30
2015,07,21,05,36,14.30
2015,07,21,05,37,14.30
2015,07,21,05,38,14.30
2015,07,21,05,39,14.30
2015,07,21,05,40,14.30
2015,07,21,05,41,14.30
2015,07,21,05,42,14.30
2015,07,21,05,43,14.30
2015,07,21,05,44,14.30
2015,07,21,05,45,14.30
2015,07,21,05,46,14.30
2015,07,21,05,47,14.30
2015,07,21,05,48,14.30
2015,07,21,05,49,14.20
2015,07,21,05,50,14.20
2015,07,21,05,51,14.20
2015,07,21,05,52,14.20
2015,07,21,05,53,14.20
2015,07,21,05,54,14.20
2015,07,21,05,55,14.20
2015,07,21,05,56,14.20
2015,07,21,05,57,14.20
2015,07,21,05,58,14.20
2015,07,21,05,59,14.20
2015,07,21,06,00,14.20
2015,07,21,06,01,14.20
2015,07,21,06,02,14.30
2015,07,21,06,03,14.30
2015,07,21,06,04,14.30
2015,07,21,06,05,14.30
2015,07,21,06,06,14.30
2015,07,21,06,07,14.30
2015,07,21,06,08,14.30
2015,07,21,06,09,14.30
2015,07,21,06,10,14.30
2015,07,21,06,11,14.30
2015,07,21,06,12,14.30
2015,07,21,06,13,14.30
2015,07,21,06,14,14.30
2015,07,21,06,15,14.30
2015,07,21,06,16,14.30
2015,07,21,06,17,14.30
2015,07,21,06,18,14.30
2015,07,21,06,19,14.30
2015,07,21,06,20,14.30
2015,07,21,06,21,14.30
2015,07,21,06,22,14.30
2015,07,21,06,23,14.30
2015,07,21,06,24,14.30
2015,07,21,06,25,14.30
2015,07,21,06,26,14.30
2015,07,21,06,27,14.30
2015,07,21,06,28,14.30
2015,07,21,06,29,14.30
2015,07,21,06,30,14.30
2015,07,21,06,31,14.30
2015,07,21,06,32,14.30
2015,07,21,06,33,14.30
2015,07,21,06,34,14.30
2015,07,21,06,35,14.30
2015,07,21,06,36,14.40
2015,07,21,06,37,14.40
2015,07,21,06,38,14.40
2015,07,21,06,39,14.40
2015,07,21,06,40,14.50
2015,07,21,06,41,14.50
2015,07,21,06,42,14.60
2015,07,21,06,43,14.60
2015,07,21,06,44,14.70
2015,07,21,06,45,14.70
2015,07,21,06,46,14.80
2015,07,21,06,47,14.80
2015,07,21,06,48,14.90
2015,07,21,06,49,15.00
2015,07,21,06,50,15.10
2015,07,21,06,51,15.20
2015,07,21,06,52,15.20
2015,07,21,06,53,15.20
2015,07,21,06,54,15.20
2015,07,21,06,55,15.20
2015,07,21,06,56,15.20
2015,07,21,06,57,15.20
2015,07,21,06,58,15.20
2015,07,21,06,59,15.20
2015,07,21,07,00,15.20
2015,07,21,07,01,15.20
2015,07,21,07,02,15.30
2015,07,21,07,03,15.30
2015,07,21,07,04,15.30
2015,07,21,07,05,15.20
2015,07,21,07,06,15.20
2015,07,21,07,07,15.20
2015,07,21,07,08,15.20
2015,07,21,07,09,15.20
2015,07,21,07,10,15.20
2015,07,21,07,11,15.20
2015,07,21,07,12,15.20
2015,07,21,07,13,15.20
2015,07,21,07,14,15.20
2015,07,21,07,15,15.20
2015,07,21,07,16,15.20
2015,07,21,07,17,15.30
2015,07,21,07,18,15.30
2015,07,21,07,19,15.30
2015,07,21,07,20,15.30
2015,07,21,07,21,15.30
2015,07,21,07,22,15.40
2015,07,21,07,23,15.40
2015,07,21,07,24,15.40
2015,07,21,07,25,15.40
2015,07,21,07,26,15.50
2015,07,21,07,27,15.50
2015,07,21,07,28,15.50
2015,07,21,07,29,15.60
2015,07,21,07,30,15.60
2015,07,21,07,31,15.60
2015,07,21,07,32,15.60
2015,07,21,07,33,15.70
2015,07,21,07,34,15.70
2015,07,21,07,35,15.80
2015,07,21,07,36,15.80
2015,07,21,07,37,15.80
2015,07,21,07,38,15.90
2015,07,21,07,39,15.90
2015,07,21,07,40,15.90
2015,07,21,07,41,15.90
2015,07,21,07,42,16.00
2015,07,21,07,43,16.00
2015,07,21,07,44,16.00
2015,07,21,07,45,16.10
2015,07,21,07,46,16.10
2015,07,21,07,47,16.10
2015,07,21,07,48,16.20
2015,07,21,07,49,16.20
2015,07,21,07,50,16.20
2015,07,21,07,51,16.20
2015,07,21,07,52,16.20
2015,07,21,07,53,16.20
2015,07,21,07,54,16.30
2015,07,21,07,55,16.30
2015,07,21,07,56,16.30
2015,07,21,07,57,16.30
2015,07,21,07,58,16.40
2015,07,21,07,59,16.40
2015,07,21,08,00,16.50
2015,07,21,08,01,16.50
2015,07,21,08,02,16.60
2015,07,21,08,03,16.60
2015,07,21,08,04,16.60
2015,07,21,08,05,16.70
2015,07,21,08,06,16.70
2015,07,21,08,07,16.70
2015,07,21,08,08,16.80
2015,07,21,08,09,16.80
2015,07,21,08,10,16.80
2015,07,21,08,11,16.80
2015,07,21,08,12,16.90
2015,07,21,08,13,17.00
2015,07,21,08,14,17.00
2015,07,21,08,15,17.10
2015,07,21,08,16,17.10
2015,07,21,08,17,17.10
2015,07,21,08,18,17.10
2015,07,21,08,19,17.10
2015,07,21,08,20,17.00
2015,07,21,08,21,16.90
2015,07,21,08,22,16.80
2015,07,21,08,23,16.70
2015,07,21,08,24,16.70
2015,07,21,08,25,16.60
2015,07,21,08,26,16.60
2015,07,21,08,27,16.60
2015,07,21,08,28,16.60
2015,07,21,08,29,16.60
2015,07,21,08,30,16.70
2015,07,21,08,31,16.70
2015,07,21,08,32,16.70
2015,07,21,08,33,16.70
2015,07,21,08,34,16.70
2015,07,21,08,35,16.70
2015,07,21,08,36,16.70
2015,07,21,08,37,16.70
2015,07,21,08,38,16.80
2015,07,21,08,39,16.80
2015,07,21,08,40,16.80
2015,07,21,08,41,16.80
2015,07,21,08,42,16.80
2015,07,21,08,43,16.90
2015,07,21,08,44,17.00
2015,07,21,08,45,17.10
2015,07,21,08,46,17.10
2015,07,21,08,47,17.20
2015,07,21,08,48,17.30
2015,07,21,08,49,17.30
2015,07,21,08,50,17.40
2015,07,21,08,51,17.50
2015,07,21,08,52,17.60
2015,07,21,08,53,17.70
2015,07,21,08,54,17.70
2015,07,21,08,55,17.70
2015,07,21,08,56,17.70
2015,07,21,08,57,17.70
2015,07,21,08,58,17.70
2015,07,21,08,59,17.70
2015,07,21,09,00,17.80
2015,07,21,09,01,17.80
2015,07,21,09,02,17.80
2015,07,21,09,03,17.80
2015,07,21,09,04,17.80
2015,07,21,09,05,17.90
2015,07,21,09,06,17.90
2015,07,21,09,07,18.00
2015,07,21,09,08,18.00
2015,07,21,09,09,18.00
2015,07,21,09,10,18.10
2015,07,21,09,11,18.10
2015,07,21,09,12,18.10
2015,07,21,09,13,18.10
2015,07,21,09,14,18.20
2015,07,21,09,15,18.20
2015,07,21,09,16,18.20
2015,07,21,09,17,18.10
2015,07,21,09,18,18.00
2015,07,21,09,19,18.00
2015,07,21,09,20,18.00
2015,07,21,09,21,18.00
2015,07,21,09,22,18.10
2015,07,21,09,23,18.10
2015,07,21,09,24,18.00
2015,07,21,09,25,18.00
2015,07,21,09,26,18.00
2015,07,21,09,27,18.00
2015,07,21,09,28,18.00
2015,07,21,09,29,18.00
2015,07,21,09,30,17.90
2015,07,21,09,31,17.90
2015,07,21,09,32,17.80
2015,07,21,09,33,17.80
2015,07,21,09,34,17.90
2015,07,21,09,35,17.90
2015,07,21,09,36,18.00
2015,07,21,09,37,18.00
2015,07,21,09,38,18.00
2015,07,21,09,39,18.00
2015,07,21,09,40,18.00
2015,07,21,09,41,18.10
2015,07,21,09,42,18.10
2015,07,21,09,43,18.10
2015,07,21,09,44,18.10
2015,07,21,09,45,18.00
2015,07,21,09,46,17.90
2015,07,21,09,47,17.80
2015,07,21,09,48,17.70
2015,07,21,09,49,17.70
2015,07,21,09,50,17.80
2015,07,21,09,51,17.90
2015,07,21,09,52,18.00
2015,07,21,09,53,18.10
2015,07,21,09,54,18.10
2015,07,21,09,55,18.00
2015,07,21,09,56,17.90
2015,07,21,09,57,17.90
2015,07,21,09,58,17.90
2015,07,21,09,59,18.00
2015,07,21,10,00,18.00
2015,07,21,10,01,17.90
2015,07,21,10,02,17.90
2015,07,21,10,03,17.90
2015,07,21,10,04,17.90
2015,07,21,10,05,17.90
2015,07,21,10,06,18.00
2015,07,21,10,07,18.00
2015,07,21,10,08,18.00
2015,07,21,10,09,17.90
2015,07,21,10,10,17.90
2015,07,21,10,11,18.00
2015,07,21,10,12,18.10
2015,07,21,10,13,18.10
2015,07,21,10,14,18.10
2015,07,21,10,15,18.20
2015,07,21,10,16,18.30
2015,07,21,10,17,18.50
2015,07,21,10,18,18.60
2015,07,21,10,19,18.70
2015,07,21,10,20,18.70
2015,07,21,10,21,18.70
2015,07,21,10,22,18.60
2015,07,21,10,23,18.60
2015,07,21,10,24,18.50
2015,07,21,10,25,18.40
2015,07,21,10,26,18.40
2015,07,21,10,27,18.30
2015,07,21,10,28,18.40
2015,07,21,10,29,18.50
2015,07,21,10,30,18.60
2015,07,21,10,31,18.80
2015,07,21,10,32,18.80
2015,07,21,10,33,18.90
2015,07,21,10,34,19.00
2015,07,21,10,35,19.00
2015,07,21,10,36,19.00
2015,07,21,10,37,19.10
2015,07,21,10,38,19.20
2015,07,21,10,39,19.10
2015,07,21,10,40,19.10
2015,07,21,10,41,19.20
2015,07,21,10,42,19.30
2015,07,21,10,43,19.40
2015,07,21,10,44,19.40
2015,07,21,10,45,19.40
2015,07,21,10,46,19.30
2015,07,21,10,47,19.30
2015,07,21,10,48,19.10
2015,07,21,10,49,18.90
2015,07,21,10,50,18.80
2015,07,21,10,51,18.80
2015,07,21,10,52,18.90
2015,07,21,10,53,19.00
2015,07,21,10,54,19.20
2015,07,21,10,55,19.30
2015,07,21,10,56,19.40
2015,07,21,10,57,19.50
2015,07,21,10,58,19.40
2015,07,21,10,59,19.30
2015,07,21,11,00,19.30
2015,07,21,11,01,19.30
2015,07,21,11,02,19.30
2015,07,21,11,03,19.30
2015,07,21,11,04,19.40
2015,07,21,11,05,19.50
2015,07,21,11,06,19.50
2015,07,21,11,07,19.70
2015,07,21,11,08,19.80
2015,07,21,11,09,19.80
2015,07,21,11,10,19.70
2015,07,21,11,11,19.60
2015,07,21,11,12,19.60
2015,07,21,11,13,19.60
2015,07,21,11,14,19.60
2015,07,21,11,15,19.60
2015,07,21,11,16,19.60
2015,07,21,11,17,19.80
2015,07,21,11,18,19.90
2015,07,21,11,19,20.10
2015,07,21,11,20,20.20
2015,07,21,11,21,20.30
2015,07,21,11,22,20.30
2015,07,21,11,23,20.20
2015,07,21,11,24,20.20
2015,07,21,11,25,20.20
2015,07,21,11,26,20.20
2015,07,21,11,27,20.30
2015,07,21,11,28,20.30
2015,07,21,11,29,20.30
2015,07,21,11,30,20.30
2015,07,21,11,31,20.20
2015,07,21,11,32,20.20
2015,07,21,11,33,20.20
2015,07,21,11,34,20.10
2015,07,21,11,35,20.10
2015,07,21,11,36,20.10
2015,07,21,11,37,20.20
2015,07,21,11,38,20.20
2015,07,21,11,39,20.20
2015,07,21,11,40,20.30
2015,07,21,11,41,20.20
2015,07,21,11,42,20.20
2015,07,21,11,43,20.20
2015,07,21,11,44,20.20
2015,07,21,11,45,20.10
2015,07,21,11,46,20.10
2015,07,21,11,47,20.20
2015,07,21,11,48,20.30
2015,07,21,11,49,20.30
2015,07,21,11,50,20.40
2015,07,21,11,51,20.50
2015,07,21,11,52,20.40
2015,07,21,11,53,20.50
2015,07,21,11,54,20.60
2015,07,21,11,55,20.60
2015,07,21,11,56,20.60
2015,07,21,11,57,20.50
2015,07,21,11,58,20.50
2015,07,21,11,59,20.50
2015,07,21,12,00,20.50
2015,07,21,12,01,20.50
2015,07,21,12,02,20.40
2015,07,21,12,03,20.40
2015,07,21,12,04,20.40
2015,07,21,12,05,20.30
2015,07,21,12,06,20.30
2015,07,21,12,07,20.40
2015,07,21,12,08,20.50
2015,07,21,12,09,20.60
2015,07,21,12,10,20.50
2015,07,21,12,11,20.50
2015,07,21,12,12,20.50
2015,07,21,12,13,20.60
2015,07,21,12,14,20.70
2015,07,21,12,15,20.80
2015,07,21,12,16,20.90
2015,07,21,12,17,20.90
2015,07,21,12,18,20.80
2015,07,21,12,19,20.70
2015,07,21,12,20,20.60
2015,07,21,12,21,20.60
2015,07,21,12,22,20.60
2015,07,21,12,23,20.50
2015,07,21,12,24,20.50
2015,07,21,12,25,20.40
2015,07,21,12,26,20.40
2015,07,21,12,27,20.40
2015,07,21,12,28,20.30
2015,07,21,12,29,20.30
2015,07,21,12,30,20.20
2015,07,21,12,31,20.20
2015,07,21,12,32,20.10
2015,07,21,12,33,20.10
2015,07,21,12,34,20.00
2015,07,21,12,35,20.20
2015,07,21,12,36,20.30
2015,07,21,12,37,20.30
2015,07,21,12,38,20.40
2015,07,21,12,39,20.40
2015,07,21,12,40,20.40
2015,07,21,12,41,20.30
2015,07,21,12,42,20.40
2015,07,21,12,43,20.40
2015,07,21,12,44,20.50
2015,07,21,12,45,20.50
2015,07,21,12,46,20.40
2015,07,21,12,47,20.30
2015,07,21,12,48,20.30
2015,07,21,12,49,20.20
2015,07,21,12,50,20.20
2015,07,21,12,51,20.10
2015,07,21,12,52,20.00
2015,07,21,12,53,19.80
2015,07,21,12,54,19.70
2015,07,21,12,55,19.60
2015,07,21,12,56,19.50
2015,07,21,12,57,19.50
2015,07,21,12,58,19.50
2015,07,21,12,59,19.50
2015,07,21,13,00,19.40
2015,07,21,13,01,19.30
2015,07,21,13,02,19.20
2015,07,21,13,03,19.00
2015,07,21,13,04,19.00
2015,07,21,13,05,19.00
2015,07,21,13,06,19.00
2015,07,21,13,07,19.00
2015,07,21,13,08,19.10
2015,07,21,13,09,19.10
2015,07,21,13,10,19.00
2015,07,21,13,11,19.00
2015,07,21,13,12,19.00
2015,07,21,13,13,18.90
2015,07,21,13,14,18.90
2015,07,21,13,15,18.80
2015,07,21,13,16,18.90
2015,07,21,13,17,19.10
2015,07,21,13,18,19.20
2015,07,21,13,19,19.30
2015,07,21,13,20,19.40
2015,07,21,13,21,19.50
2015,07,21,13,22,19.60
2015,07,21,13,23,19.70
2015,07,21,13,24,19.70
2015,07,21,13,25,19.60
2015,07,21,13,26,19.50
2015,07,21,13,27,19.50
2015,07,21,13,28,19.50
2015,07,21,13,29,19.60
2015,07,21,13,30,19.70
2015,07,21,13,31,19.50
2015,07,21,13,32,19.40
2015,07,21,13,33,19.40
2015,07,21,13,34,19.30
2015,07,21,13,35,19.40
2015,07,21,13,36,19.40
2015,07,21,13,37,19.40
2015,07,21,13,38,19.40
2015,07,21,13,39,19.40
2015,07,21,13,40,19.50
2015,07,21,13,41,19.50
2015,07,21,13,42,19.60
2015,07,21,13,43,19.60
2015,07,21,13,44,19.50
2015,07,21,13,45,19.50
2015,07,21,13,46,19.50
2015,07,21,13,47,19.50
2015,07,21,13,48,19.60
2015,07,21,13,49,19.60
2015,07,21,13,50,19.70
2015,07,21,13,51,19.90
2015,07,21,13,52,20.00
2015,07,21,13,53,19.90
2015,07,21,13,54,19.90
2015,07,21,13,55,19.80
2015,07,21,13,56,19.80
2015,07,21,13,57,19.80
2015,07,21,13,58,19.80
2015,07,21,13,59,19.90
2015,07,21,14,00,19.90
2015,07,21,14,01,19.80
2015,07,21,14,02,19.70
2015,07,21,14,03,19.70
2015,07,21,14,04,19.80
2015,07,21,14,05,19.90
2015,07,21,14,06,19.90
2015,07,21,14,07,20.00
2015,07,21,14,08,20.10
2015,07,21,14,09,20.10
2015,07,21,14,10,20.00
2015,07,21,14,11,20.10
2015,07,21,14,12,20.10
2015,07,21,14,13,20.10
2015,07,21,14,14,20.10
2015,07,21,14,15,20.20
2015,07,21,14,16,20.20
2015,07,21,14,17,20.30
2015,07,21,14,18,20.30
2015,07,21,14,19,20.30
2015,07,21,14,20,20.30
2015,07,21,14,21,20.30
2015,07,21,14,22,20.30
2015,07,21,14,23,20.30
2015,07,21,14,24,20.30
2015,07,21,14,25,20.40
2015,07,21,14,26,20.50
2015,07,21,14,27,20.60
2015,07,21,14,28,20.70
2015,07,21,14,29,20.70
2015,07,21,14,30,20.70
2015,07,21,14,31,20.70
2015,07,21,14,32,20.70
2015,07,21,14,33,20.80
2015,07,21,14,34,20.80
2015,07,21,14,35,20.70
2015,07,21,14,36,20.70
2015,07,21,14,37,20.60
2015,07,21,14,38,20.50
2015,07,21,14,39,20.40
2015,07,21,14,40,20.40
2015,07,21,14,41,20.30
2015,07,21,14,42,20.30
2015,07,21,14,43,20.40
2015,07,21,14,44,20.40
2015,07,21,14,45,20.40
2015,07,21,14,46,20.30
2015,07,21,14,47,20.40
2015,07,21,14,48,20.40
2015,07,21,14,49,20.50
2015,07,21,14,50,20.50
2015,07,21,14,51,20.50
2015,07,21,14,52,20.60
2015,07,21,14,53,20.70
2015,07,21,14,54,20.70
2015,07,21,14,55,20.70
2015,07,21,14,56,20.60
2015,07,21,14,57,20.60
2015,07,21,14,58,20.60
2015,07,21,14,59,20.60
2015,07,21,15,00,20.70
2015,07,21,15,01,20.80
2015,07,21,15,02,20.90
2015,07,21,15,03,21.00
2015,07,21,15,04,21.10
2015,07,21,15,05,21.20
2015,07,21,15,06,21.30
2015,07,21,15,07,21.30
2015,07,21,15,08,21.40
2015,07,21,15,09,21.50
2015,07,21,15,10,21.50
2015,07,21,15,11,21.50
2015,07,21,15,12,21.50
2015,07,21,15,13,21.40
2015,07,21,15,14,21.30
2015,07,21,15,15,21.20
2015,07,21,15,16,21.10
2015,07,21,15,17,21.10
2015,07,21,15,18,21.20
2015,07,21,15,19,21.20
2015,07,21,15,20,21.30
2015,07,21,15,21,21.30
2015,07,21,15,22,21.30
2015,07,21,15,23,21.30
2015,07,21,15,24,21.20
2015,07,21,15,25,21.20
2015,07,21,15,26,21.20
2015,07,21,15,27,21.20
2015,07,21,15,28,21.30
2015,07,21,15,29,21.30
2015,07,21,15,30,21.30
2015,07,21,15,31,21.30
2015,07,21,15,32,21.40
2015,07,21,15,33,21.40
2015,07,21,15,34,21.50
2015,07,21,15,35,21.60
2015,07,21,15,36,21.60
2015,07,21,15,37,21.60
2015,07,21,15,38,21.60
2015,07,21,15,39,21.60
2015,07,21,15,40,21.60
2015,07,21,15,41,21.60
2015,07,21,15,42,21.60
2015,07,21,15,43,21.60
2015,07,21,15,44,21.70
2015,07,21,15,45,21.80
2015,07,21,15,46,21.90
2015,07,21,15,47,21.90
2015,07,21,15,48,21.90
2015,07,21,15,49,21.80
2015,07,21,15,50,21.70
2015,07,21,15,51,21.50
2015,07,21,15,52,21.40
2015,07,21,15,53,21.30
2015,07,21,15,54,21.20
2015,07,21,15,55,21.30
2015,07,21,15,56,21.30
2015,07,21,15,57,21.40
2015,07,21,15,58,21.50
2015,07,21,15,59,21.60
2015,07,21,16,00,21.60
2015,07,21,16,01,21.70
2015,07,21,16,02,21.80
2015,07,21,16,03,21.90
2015,07,21,16,04,22.00
2015,07,21,16,05,22.00
2015,07,21,16,06,21.90
2015,07,21,16,07,21.90
2015,07,21,16,08,21.80
2015,07,21,16,09,21.80
2015,07,21,16,10,21.70
2015,07,21,16,11,21.70
2015,07,21,16,12,21.80
2015,07,21,16,13,21.80
2015,07,21,16,14,21.80
2015,07,21,16,15,21.80
2015,07,21,16,16,21.70
2015,07,21,16,17,21.60
2015,07,21,16,18,21.50
2015,07,21,16,19,21.50
2015,07,21,16,20,21.50
2015,07,21,16,21,21.50
2015,07,21,16,22,21.50
2015,07,21,16,23,21.60
2015,07,21,16,24,21.60
2015,07,21,16,25,21.60
2015,07,21,16,26,21.60
2015,07,21,16,27,21.50
2015,07,21,16,28,21.50
2015,07,21,16,29,21.50
2015,07,21,16,30,21.50
2015,07,21,16,31,21.50
2015,07,21,16,32,21.60
2015,07,21,16,33,21.70
2015,07,21,16,34,21.70
2015,07,21,16,35,21.80
2015,07,21,16,36,21.80
2015,07,21,16,37,21.90
2015,07,21,16,38,22.00
2015,07,21,16,39,22.10
2015,07,21,16,40,22.20
2015,07,21,16,41,22.30
2015,07,21,16,42,22.30
2015,07,21,16,43,22.30
2015,07,21,16,44,22.30
2015,07,21,16,45,22.30
2015,07,21,16,46,22.30
2015,07,21,16,47,22.30
2015,07,21,16,48,22.30
2015,07,21,16,49,22.30
2015,07,21,16,50,22.30
2015,07,21,16,51,22.40
2015,07,21,16,52,22.40
2015,07,21,16,53,22.40
2015,07,21,16,54,22.40
2015,07,21,16,55,22.40
2015,07,21,16,56,22.40
2015,07,21,16,57,22.40
2015,07,21,16,58,22.50
2015,07,21,16,59,22.50
2015,07,21,17,00,22.60
2015,07,21,17,01,22.60
2015,07,21,17,02,22.60
2015,07,21,17,03,22.60
2015,07,21,17,04,22.60
2015,07,21,17,05,22.60
2015,07,21,17,06,22.70
2015,07,21,17,07,22.60
2015,07,21,17,08,22.60
2015,07,21,17,09,22.60
2015,07,21,17,10,22.60
2015,07,21,17,11,22.60
2015,07,21,17,12,22.60
2015,07,21,17,13,22.60
2015,07,21,17,14,22.50
2015,07,21,17,15,22.50
2015,07,21,17,16,22.50
2015,07,21,17,17,22.60
2015,07,21,17,18,22.60
2015,07,21,17,19,22.60
2015,07,21,17,20,22.60
2015,07,21,17,21,22.70
2015,07,21,17,22,22.70
2015,07,21,17,23,22.80
2015,07,21,17,24,22.90
2015,07,21,17,25,23.00
2015,07,21,17,26,23.10
2015,07,21,17,27,23.20
2015,07,21,17,28,23.20
2015,07,21,17,29,23.20
2015,07,21,17,30,23.30
2015,07,21,17,31,23.30
2015,07,21,17,32,23.30
2015,07,21,17,33,23.30
2015,07,21,17,34,23.30
2015,07,21,17,35,23.20
2015,07,21,17,36,23.20
2015,07,21,17,37,23.10
2015,07,21,17,38,23.10
2015,07,21,17,39,23.10
2015,07,21,17,40,23.10
2015,07,21,17,41,23.10
2015,07,21,17,42,23.20
2015,07,21,17,43,23.10
2015,07,21,17,44,23.10
2015,07,21,17,45,23.00
2015,07,21,17,46,23.00
2015,07,21,17,47,23.00
2015,07,21,17,48,22.90
2015,07,21,17,49,22.90
2015,07,21,17,50,22.90
2015,07,21,17,51,22.90
2015,07,21,17,52,22.90
2015,07,21,17,53,22.90
2015,07,21,17,54,22.90
2015,07,21,17,55,22.90
2015,07,21,17,56,22.90
2015,07,21,17,57,22.90
2015,07,21,17,58,22.90
2015,07,21,17,59,22.80
2015,07,21,18,00,22.90
2015,07,21,18,01,22.90
2015,07,21,18,02,22.80
2015,07,21,18,03,22.80
2015,07,21,18,04,22.80
2015,07,21,18,05,22.80
2015,07,21,18,06,22.80
2015,07,21,18,07,22.80
2015,07,21,18,08,22.90
2015,07,21,18,09,22.90
2015,07,21,18,10,22.90
2015,07,21,18,11,22.90
2015,07,21,18,12,23.00
2015,07,21,18,13,23.00
2015,07,21,18,14,23.10
2015,07,21,18,15,23.10
2015,07,21,18,16,23.10
2015,07,21,18,17,23.20
2015,07,21,18,18,23.20